Regional Weather Roundup
Issued by NWS

Home | Current Version | Previous Version | Text Only | Print | Product List | Glossary Off
Versions: 1 2 3 4 5 6 7 8 9 10 11 12 13 14 15 16 17 18 19 20 21 22 23 24 25 26 27 28 29 30 31 32 33 34 35 36 37 38 39 40 41 42 43 44 45 46 47 48 49 50

365
ASUS43 KMKX 222159
RWRWI

WISCONSIN REGIONAL WEATHER ROUNDUP
NATIONAL WEATHER SERVICE MILWAUKEE/SULLIVAN WI
500 PM CDT SUN APR 22 2018

NOTE: "FAIR" INDICATES FEW OR NO CLOUDS BELOW 12,000 FEET WITH NO
SIGNIFICANT WEATHER AND/OR OBSTRUCTIONS TO VISIBILITY.

WIZ001-002-006>008-014>016-023>028-222300-
NORTHWEST WISCONSIN

CITY           SKY/WX    TMP DP  RH WIND       PRES   REMARKS
SUPERIOR ARPT  FAIR      48  28  45 NE6       30.25F
ASHLAND        FAIR      54  30  40 N9        30.26F
HAYWARD        FAIR      60  28  29 SW7       30.27S
SIREN          FAIR      62  26  26 S10       30.27S
CUMBERLAND     FAIR      55  28  35 CALM      30.27F
RICE LAKE      FAIR      61  31  31 S5        30.28F
CHETEK         FAIR      61  32  33 SW3       30.27F
LADYSMITH      FAIR      61  30  31 S5        30.29F
EAU CLAIRE     NOT AVBL
MENOMONIE      FAIR      64  29  26 E6        30.26F
NEW RICHMOND   FAIR      62  32  32 S3        30.27F
OSCEOLA        FAIR      63  34  34 S9        30.28F
$$

WIZ003>005-009-010-017-018-222300-
NORTH CENTRAL WISCONSIN

CITY           SKY/WX    TMP DP  RH WIND       PRES   REMARKS
MANITOWISH WTR FAIR      57  20  24 S6        30.26F
ARBOR VITAE    FAIR      59  18  20 S3        30.27S
WOODRUFF       FAIR      59  18  20 S3        30.27S
RHINELANDER    FAIR      59  25  27 S10       30.28F
EAGLE RIVER    FAIR      56  15  19 SW6       30.26S
LAND O LAKES   FAIR      61  14  15 SW6       30.27F
PHILLIPS       FAIR      59  28  31 SW3       30.27S
TOMAHAWK       FAIR      58  22  25 SW5       30.28F
MEDFORD        FAIR      55  31  39 SE6       30.29F
MERRILL          N/A     60  25  25 S6        30.29F
$$

WIZ029-030-035-036-043>047-222300-
CENTRAL WISCONSIN

CITY           SKY/WX    TMP DP  RH WIND       PRES   REMARKS
WAUSAU         FAIR      59  20  22 SE8       30.28F
MOSINEE        MOSUNNY   57  25  28 SE8       30.31S
MARSHFIELD     FAIR      56  27  32 SE9       30.28F
STEVENS POINT  FAIR      55  15  21 E3        30.32S
WAUPACA        FAIR      59  17  19 S5        30.33S
WAUTOMA        NOT AVBL
WISC RAPIDS    FAIR      58  16  19 SE7       30.30F
CAMP DOUGLAS   FAIR      61  27  27 E8        30.28F
$$

WIZ011>013-019>022-031-037>040-048>050-222300-
NORTHEAST WISCONSIN

CITY           SKY/WX    TMP DP  RH WIND       PRES   REMARKS
ANTIGO         FAIR      55  28  35 SE8       30.30F
SHAWANO        FAIR      57  23  26 SE9       30.33S
OCONTO         FAIR      56  22  26 SE6       30.34S
STURGEON BAY   FAIR      56  23  27 S6        30.34F
GREEN BAY      FAIR      56  30  37 S6        30.33F
MANITOWOC      FAIR      56  27  32 CALM      30.33F
APPLETON       MOSUNNY   57  21  24 CALM      30.31F
CLINTONVILLE   FAIR      56  17  21 S3        30.33S
OSHKOSH        FAIR      57  29  34 NE9       30.31F
$$

WIZ032>034-041-042-053>061-222300-
SOUTHWEST WISCONSIN

CITY           SKY/WX    TMP DP  RH WIND       PRES   REMARKS
LA CROSSE      FAIR      65  29  25 E7        30.26F
SPARTA         FAIR      63  28  27 E9        30.28F
VIROQUA        FAIR      60  32  34 E8        30.27F
BOSCOBEL       FAIR      68  24  19 NE8G17    30.25F
PRAIRIE DU CHI FAIR      66  21  18 NE9       30.23F
PLATTEVILLE    FAIR      65  33  30 E12       30.24F
$$

WIZ056-057-062-063-064-067-068-222300-
SOUTH CENTRAL WISCONSIN

CITY           SKY/WX    TMP DP  RH WIND       PRES   REMARKS
REEDSBURG      FAIR      62  24  23 NE8       30.27F
BARABOO/DELLS  FAIR      59  24  26 E5        30.28F
LONE ROCK      NOT AVBL
MINERAL POINT  FAIR      64  30  27 NE9       30.25F
MADISON        PTSUNNY   60  30  32 E14       30.27F
MIDDLETON      FAIR      63  29  27 E8        30.28S
WATERTOWN      FAIR      59  30  33 E10       30.29S
MONROE         FAIR      63  30  29 E10G16    30.25S
JANESVILLE     SUNNY     64  21  19 E14G20    30.26F
$$

WIZ051-052-058>065-066-070>072-222300-
SOUTHEAST WISCONSIN

CITY           SKY/WX    TMP DP  RH WIND       PRES   REMARKS
MILWAUKEE      PTSUNNY   57  26  30 NE8       30.30F
WAUKESHA       SUNNY     55  23  28 E9        30.31F
MILWAUKEE/TIMM SUNNY     57  18  21 NE6       30.31F
RACINE         FAIR      54  26  34 N10       30.31F
BURLINGTON     FAIR      60  24  25 E10       30.28F
KENOSHA        FAIR      59  26  28 E14       30.28F
FOND DU LAC    FAIR      56  28  34 NE10      30.31F
SHEBOYGAN      FAIR      57  31  37 S6        30.31F
WEST BEND      FAIR      55  23  28 SE8       30.31F
JUNEAU         FAIR      57  30  36 E8        30.31F
$$

LSZ147-162-222300-
LAKE SUPERIOR

STATION/POSITION TIME  TEMP    WIND        PRES    WAVE
                       AIR SEA DIR/SP/G            HT/PER
                 (UTC) (F)     (DEG/KT/KT) (MB)    (FT/S)
DEVILS ISLAND    2100   39      40/  7/  7 1026.0F
SAXON HARBOR     2130   40     320/  3/  5 1024.4F
$$

LMZ867-665-643>646-222300-
LAKE MICHIGAN

STATION/POSITION TIME  TEMP    WIND        PRES    WAVE
                       AIR SEA DIR/SP/G            HT/PER
                 (UTC) (F)     (DEG/KT/KT) (MB)    (FT/S)
NORTHPORT PIER   2140   42                 1027.4F
KEWAUNEE LAKESHO 2130   51      60/  2/  3 1026.5F
SHEBOYGAN LAKESH 2100   43      10/  4/  4 1027.7F
PORT WASHINGTON  2140   47      40/  3/  5 1027.4F
MILWAUKEE LAKESH 2130   49      30/  9/ 10   N/A
KENOSHA   LAKESH 2100   43                 1026.1
$$

TC  - TEMPERATURE IN CELSIUS
VSB - VISIBILITY IN STATUTE MILES
WCI - WIND CHILL INDEX
HX  - HEAT INDEX





USA.gov is the U.S. government's official web portal to all federal, state and local government web resources and services.